Timeline UpdatesTrip UpdatesNews PostsPvt PostsTravel TipsAdmin PostsConv PostsFollowed PostsChat RequestsBlog PostsPNR Posts

Disclaimer
Search
 
 
Sun Apr 20, 2014 19:59:22 ISTHomeTrainsΣChainsAtlasPNRForumGalleryNewsFAQTripsMembersLoginFeedback
No Recent News for this Train
Other Trains in the News **new
Latest...
Train leaving Saharsa on 31st January and 1st February 2014 will be diverted to run via Siwan-Thawe-Kaptanganj- Gorakhpur; #967235
Fri Jan 17, 2014 (07:42PM)
⇐ Return Journey: Train# 15210

15209/Jan Seva Express (UnReserved)

Dec 27 2013 (6:25PM)
Change Departure Station:
Change Arrival Station:
Post a Train Travel TipPost a Train Travel Tip **new
Post a Comment/Question/Picture/VideoPost a Comment/Question/Picture/Video
Inaugural Run
Sat Dec 12, 2009
Pantry/Catering
✕ NO Pantry Car
✕ NO Catering
RSA - Rake Sharing
RSA with 15275/76...shc bju express
Rake/Coach Composition
LOCO-SLR-GEN-GEN-GEN-GEN-GEN-GEN-GEN-GEN-GEN-GEN-GEN-GEN-GEN-GEN-GEN-GEN-GEN-GEN-GEN-GEN-SLR
Loco
SHC-MB: GD WDM-3A; MB-ASR: GZB WAP5/WAP7
News    PNR    Forum    Time-Table    Availability    Fare Chart    Map    Arr/Dep History    Trips    Gallery    ΣChains    X/O    Timeline    
Travel Time: 28h 47m    38 halts    Distance: 1322 km    Avg Speed: 45 km/hr
Type: Mail/Express
Zone: ECR/East Central
Departs @ 08:45 (Avg 5m late)
Platform# 1
SMTWTFS
Saharsa Junction/SHC 
Arrives @ 13:32 +1 night (Avg 52m late)
Platform# 1
SMTWTFS
Sirhind Junction/SIR 

38 halts. 223 intermediate Stations between Saharsa Junction and Sirhind Junction

Show ALL intermediate Stations  Show Old Time-Table

#CodeStation NameX/OArrivesAvgDepartsAvgHaltPFDay#KmSpeedElevZoneAddress
1SHC»Saharsa Junction (3)»  -08:45+5110.07346mECRSaharsa, Bihar
2SBVSimri Bakhtiyarpur (1)  08:59+1209:01+152m1117.14942mECRBakhtiarpur, Bihar
3KFAKoparia (1)  09:09+1509:11+152m1123.62242mECRBihar, Bihar
4MNEMansi Junction (3)  10:03+510:05+102m3142.55343mECR06244-233234, Bihar
5KGGKhagaria Junction (3)X  10:15+1310:17+152m1151.35843mECR06244-223596, Bihar
6LKNLakhminia  10:40+1410:42+142m--173.48245mECRBegusarai, Bihar
7BGSBegu Sarai (2)X  10:55+2010:57+202m1191.229 ECR06243-222853, Bihar
8BJUBarauni Junction (9)X  11:25+2211:35+2410m--1104.652 ECRBegusarai, Bihar
9BCABachwara Junction  11:54+3811:56+412m--1121.05446mECRBegusarai, Bihar
10MOGMohiuddinnagarX  12:19+4512:21+482m--1141.64152mECRSamastipur, Bihar
11SPPShahpur Patoree  12:40+4712:42+512m--1154.56850mECRSamastipur, Bihar
12MNOMehnar RoadX  12:49+5512:51+572m--1162.44054mECRMehnar Road, Bihar
13DESDesariO  13:06+5713:08+572m--1172.54749mECRVaishali, Bihar
14AYRNAkshaywat Rai Nagar  13:20+5913:22+592m--1181.81752mECRVaishali, Bihar
15HJPHajipur Junction (3)X  14:00+4714:05+525m--1192.33355mECR06224-272230, Bihar
16SEESonpur Junction (4)X  14:15+5114:20+505m31197.84656mECRSaran, Bihar
17DGADighwara (2)X  14:50+4314:52+432m--1221.03260mECR06158-281240, Bihar
18CPRChhapra Junction (6)  15:50+4616:00+4510m--1251.98058mNERDistt: Saran, Bihar
19EKMAEkma (3)X  16:21+4916:23+492m--1279.85864mNERSaran, Bihar
20DDADuraundha Junction (3)  16:39+5016:41+502m--1295.35664mNERDistt: Siwan, Bihar
21SVSiwan Junction (4)  17:00+4917:05+495m--1313.18570mNERSiwan, Bihar
22MWMairwa (2)X  17:20+5417:22+542m--1334.44373mNERMairwa, Bihar
23BTTBhatni Junction (5)  18:00+4718:05+465m--1361.83573mNERDeoria, Uttar Pradesh
24DEOSDeoria Sadar (3)X  18:41+2918:46+295m--1382.64379mNERDeoria- 274001, Uttar Pradesh
25GKPGorakhpur Junction (10)X  19:55+4020:10+4415m--1431.76984mNERGorakhpur 273001, Uttar Pradesh
26BSTBasti (4)  21:05+5821:07+1:012m11495.16090mNERBasti 272001, Uttar Pradesh
27GDGonda Junction (3)X  22:35+4922:45+4710m11583.662110mNERGonda 271001, Uttar Pradesh
28BUWBurhwal Junction (3)  23:45+4423:50+455m31645.843119mNERBarabanki, Uttar Pradesh
29SCCSitapur Cantt. (2)X  02:05+1802:15+2110m--2743.345141mNRSitapur, Uttar Pradesh
30MINJMaikalGanj03:11+2803:12+301m--2784.958149mNRNational Highway 24, Uttar Pradesh
31BEBareilly Junction (4)XO  05:15+3805:25+3610m12903.974174mNRBareilly, Uttar Pradesh
32RMURampur Junction (3)X  06:16+5306:18+542m--2966.939190mNRRampur, Uttar Pradesh
33MBMoradabad Junction (7)X07:00+4307:30+3630m32994.272201mNRMoradabad, Uttar Pradesh
34NBDNajibabad Junction (3)  08:52+4208:55+433m221093.144269mNRNajibabad, Uttar Pradesh
35LRJLaksar Junction (4)XO  09:52+2609:54+282m--21135.044238mNRLaksar, Uttarakhand
36SRESaharanpur Junction (6)  11:05+2511:10+295m521187.567276mNRSaharanpur, Uttar Pradesh
37JUDYamunanagar-Jagadhri (3)X  11:37+3811:38+391m321217.759275mNRYamunanagar, Haryana
38UMBAmbala Cantt. Junction (7)X  12:30+3812:40+3910m221268.767278mNRAmbala 133001, Haryana
39RPJRajpura Junction (3)X  13:05+4713:07+482m121296.860272mNRNH-1, Punjab
40SIR•Sirhind Junction (3)•O  13:32+5213:34+562m121321.636271mNRSirhind, Punjab
41DDLDhandari Kalan (3)X  15:04+2015:06+232m121374.850254mNRDhandari Kalan, Punjab
42LDHLudhiana Junction (7)X  15:15+3715:25+4310m321382.334246mNRLudhiana 141001, Punjab
43PHRPhillaur Junction (3)  15:48+3315:50+332m221395.475246mNRPhillaur, Punjab
44PGWPhagwara Junction (3)  16:08+3316:10+332m221418.063245mNRPhagwara, Punjab
45JUCJalandhar City Junction (5)  16:30+4216:35+435m121439.149239mNRJalandhar 144001, Punjab
46BEASBeas Junction (2)X  17:19+2617:21+272m121475.248238mNRBeas, Punjab
47ASRAmritsar Junction (5)  18:15+16-521518.2-233mNRAmritsar 143002, Punjab
Scroll to Top
Scroll to Bottom